Location: ?????
(55.6500°N, 37.2500°E)
Time: 08:09:41
(UTC+00:00)

Cosmos 1980 - Pass Details

Date: 19 May 2025
Orbit: 837 x 846 km, 71.0° (Epoch: 23 June)

Event Time Altitude Azimuth Distance (km) Brightness Sun altitude
Rises 23:04:23 0° 325° (NW) 3,420 7.3 -11.6°
Reaches altitude 10° 23:06:51 10° 325° (NW) 2,481 6.6 -11.5°
Maximum altitude 23:12:33 81° 239° (WSW) 863 3.7 -11.2°
Drops below altitude 10° 23:18:12 10° 153° (SSE) 2,462 5.8 -10.8°
Sets 23:20:38 0° 152° (SSE) 3,392 6.5 -10.7°
